This is the latest recevied weather packets stored in our database for station/object KD7MPG-3. If no packets are shown the sender has not sent any weather packets the latest 10 day(s).
| Time | Temp. | Humidity | Pressure | Rain* | Wind** | Luminosity | Snow |
|---|---|---|---|---|---|---|---|
| 1777757184 | 18.89° C | 72% | 1022.3 hPa | 0 mm | - | - | - |
| 1777756879 | 19.44° C | 72% | 1022.3 hPa | 0 mm | - | - | - |
| 1777756578 | 19.44° C | 72% | 1022.5 hPa | 0 mm | - | - | - |
| 1777756281 | 19.44° C | 73% | 1022.6 hPa | 0 mm | - | - | - |
| 1777755978 | 18.89° C | 74% | 1022.7 hPa | 0 mm | - | - | - |
| 1777755678 | 18.33° C | 74% | 1022.7 hPa | 0 mm | - | - | - |
| 1777755381 | 18.33° C | 74% | 1022.8 hPa | 0 mm | - | - | - |
| 1777755076 | 18.33° C | 73% | 1022.9 hPa | 0 mm | - | - | - |
| 1777754775 | 18.33° C | 72% | 1022.9 hPa | 0 mm | - | - | - |
| 1777754475 | 17.78° C | 74% | 1022.8 hPa | 0 mm | - | - | - |
| 1777754174 | 17.78° C | 73% | 1023 hPa | 0 mm | - | - | - |
| 1777753874 | 17.78° C | 75% | 1023 hPa | 0 mm | - | - | - |
| 1777753576 | 17.22° C | 73% | 1023.2 hPa | 0 mm | - | - | - |
| 1777753270 | 17.22° C | 75% | 1023.2 hPa | 0 mm | - | - | - |
| 1777752971 | 16.67° C | 76% | 1023.2 hPa | 0 mm | - | - | - |
| 1777752671 | 16.67° C | 77% | 1023.2 hPa | 0 mm | - | - | - |
| 1777752371 | 16.67° C | 76% | 1023.4 hPa | 0 mm | - | - | - |
| 1777752071 | 16.67° C | 76% | 1023.4 hPa | 0 mm | - | - | - |
| 1777751772 | 16.67° C | 75% | 1023.5 hPa | 0 mm | - | - | - |
| 1777751472 | 16.67° C | 75% | 1023.7 hPa | 0 mm | - | - | - |
| 1777751170 | 16.67° C | 75% | 1023.7 hPa | 0 mm | - | - | - |
| 1777750868 | 16.67° C | 75% | 1023.9 hPa | 0 mm | - | - | - |
| 1777750570 | 16.11° C | 77% | 1023.8 hPa | 0 mm | - | - | - |
| 1777750267 | 16.11° C | 76% | 1023.8 hPa | 0 mm | - | - | - |
| 1777749966 | 15.56° C | 78% | 1023.8 hPa | 0 mm | - | - | - |
* Rain latest hour (hover to see other rain measurements)
** Current wind speed in m/s (hover to see current wind gust speed)